Location: Roc des P�zouls
(43.9667°N, 3.5500°E)
Time: 07:19:48
(UTC+00:00)

Cosmos 2082 Rocket - Pass Details

Date: 14 November 2019
Orbit: 833 x 853 km, 71.0° (Epoch: 14 December)

Event Time Altitude Azimuth Distance (km) Brightness Sun altitude
Exits shadow 03:22:32 30° 130° (SE) 1,496 3.7 -35.3°
Maximum altitude 03:23:48 33° 104° (ESE) 1,404 3.7 -35.1°
Drops below altitude 10° 03:28:50 10° 43° (NE) 2,489 5.2 -34.2°
Sets 03:31:30 0° 34° (NE) 3,428 5.9 -33.7°
